Location: Austin
(30.3000°N, 97.7500°W)
Time: 01:57:03
(UTC-05:00)

ERS-1 Rocket - Pass Details

Date: 15 May 2024
Orbit: 751 x 754 km, 98.3° (Epoch: 19 May)

Event Time Altitude Azimuth Distance (km) Brightness Sun altitude
Exits shadow 23:02:51 63° 315° (NW) 840 3.3 -29.5°
Drops below altitude 10° 23:07:10 10° 344° (NNW) 2,279 6.2 -30.1°
Sets 23:09:28 0° 346° (NNW) 3,207 7.2 -30.4°
